YAOGAN-30 C

Satellite information

Favourite Embed

Satellite Type and Status

PAYLOADIN ORBIT

Key statistics

Satellite YAOGAN-30 C at a glance.

Uptime

3000

Days in orbit

Revolutions

≈ 15.0

Per day

Orbit

LEO

Low Earth Orbit

Inclination

35.0

Latest

Satellite identification and parameters

Extended collection of information and parameters for YAOGAN-30 C.

Object identification

Identified? True

Debris? False

Object name: YAOGAN-30 C

International designator: 2017-058C

Object number (NORAD): 42947

Object ID (CCSDS): 42947

Country: PEOPLES REPUBLIC OF CHINA (PRC)

Current information (Y/N): Y

RCS size: LARGE

Orbital parameters

Period: 95.806 minutes

Inclination: 34.9977 deg

SMA: 6935.694 km

Apoapsis: 560.557 km

Periapsis: 554.562 km

RAAN: 69.5216 deg

Eccentricy: 0.00043213

Argument of periapsis: 23.6731 deg

Mean anomaly: 336.4176 deg

Mean motion: 15.03030634 rev/day

Mean motion (dot): 0.00006551 rev/day2

B* drag term: 0.00047835905 1/REarth

Two-line elements (TLE)

Creation date: Dec. 14, 2025, 6:24 p.m.

Reference frame: TEME

Reference center: EARTH

Epoch: Dec. 14, 2025, 7:27 a.m. UTC

TLE line 0: 0 YAOGAN-30 C

TLE line 1: 1 42947U 17058C 25348.31041917 .00006551 00000-0 47836-3 0 9993

TLE line 2: 2 42947 34.9977 69.5216 0004321 23.6731 336.4176 15.03030634447974

Live tracking on map

Real-time ground track for satellite YAOGAN-30 C.

In-orbit conjunctions

There are no conjunctions computed for YAOGAN-30 C, at the moment. Check back to stay up to date, as we update our databases every day.

Go to all conjunctions

Associated space launch

YAOGAN-30 C was lifted into orbit during the mission ‘Long March 2C | 3 x Yaogan-30-01’, on board a Long March 2 space rocket.

The launch took place on Sept. 29, 2017, 4:21 a.m. from Launch Complex 3 (LC-3/LA-1).

For more information about the launch, click the button.

Launch to space Long March 2C | 3 x Yaogan-30-01
Long March 2C | 3 x Yaogan-30-01

Agency: N/A

Status: Launch Successful

Launch date: Sept. 29, 2017, 4:21 a.m. UTC

Rocket: Long March 2

Launch pad: Launch Complex 3 (LC-3/LA-1)

Location: Xichang Satellite Launch Center, People's Republic of China

...

Latest news about this satellite

There are no fresh news available about this satellite. Check back as we update our databases every day.


Newsletter sign-up

Weekly statistics, charts and insights to help you stay on top of the space industry.